Year,Month,Day,Hour,Minute,Value (Times are PST for temperature in C)
2016,05,02,00,00,10.40
2016,05,02,00,01,10.30
2016,05,02,00,02,10.30
2016,05,02,00,03,10.30
2016,05,02,00,04,10.30
2016,05,02,00,05,10.20
2016,05,02,00,06,10.20
2016,05,02,00,07,10.20
2016,05,02,00,08,10.20
2016,05,02,00,09,10.20
2016,05,02,00,10,10.10
2016,05,02,00,11,10.10
2016,05,02,00,12,10.10
2016,05,02,00,13,10.10
2016,05,02,00,14,10.10
2016,05,02,00,15,10.10
2016,05,02,00,16,10.10
2016,05,02,00,17,10.00
2016,05,02,00,18,10.00
2016,05,02,00,19,10.00
2016,05,02,00,20,10.00
2016,05,02,00,21,10.00
2016,05,02,00,22,10.00
2016,05,02,00,23,10.00
2016,05,02,00,24,9.90
2016,05,02,00,25,9.90
2016,05,02,00,26,9.90
2016,05,02,00,27,9.90
2016,05,02,00,28,9.90
2016,05,02,00,29,9.90
2016,05,02,00,30,9.90
2016,05,02,00,31,9.90
2016,05,02,00,32,9.80
2016,05,02,00,33,9.80
2016,05,02,00,34,9.80
2016,05,02,00,35,9.80
2016,05,02,00,36,9.80
2016,05,02,00,37,9.70
2016,05,02,00,38,9.70
2016,05,02,00,39,9.70
2016,05,02,00,40,9.70
2016,05,02,00,41,9.70
2016,05,02,00,42,9.60
2016,05,02,00,43,9.60
2016,05,02,00,44,9.60
2016,05,02,00,45,9.50
2016,05,02,00,46,9.50
2016,05,02,00,47,9.50
2016,05,02,00,48,9.40
2016,05,02,00,49,9.40
2016,05,02,00,50,9.40
2016,05,02,00,51,9.40
2016,05,02,00,52,9.30
2016,05,02,00,53,9.30
2016,05,02,00,54,9.30
2016,05,02,00,55,9.30
2016,05,02,00,56,9.30
2016,05,02,00,57,9.20
2016,05,02,00,58,9.20
2016,05,02,00,59,9.20
2016,05,02,01,00,9.20
2016,05,02,01,01,9.20
2016,05,02,01,02,9.20
2016,05,02,01,03,9.20
2016,05,02,01,04,9.20
2016,05,02,01,05,9.20
2016,05,02,01,06,9.20
2016,05,02,01,07,9.20
2016,05,02,01,08,9.20
2016,05,02,01,09,9.20
2016,05,02,01,10,9.20
2016,05,02,01,11,9.20
2016,05,02,01,12,9.10
2016,05,02,01,13,9.20
2016,05,02,01,14,9.10
2016,05,02,01,15,9.10
2016,05,02,01,16,9.10
2016,05,02,01,17,9.10
2016,05,02,01,18,9.10
2016,05,02,01,19,9.10
2016,05,02,01,20,9.10
2016,05,02,01,21,9.10
2016,05,02,01,22,9.00
2016,05,02,01,23,9.00
2016,05,02,01,24,9.00
2016,05,02,01,25,9.00
2016,05,02,01,26,9.00
2016,05,02,01,27,9.00
2016,05,02,01,28,8.90
2016,05,02,01,29,8.90
2016,05,02,01,30,8.90
2016,05,02,01,31,8.90
2016,05,02,01,32,8.90
2016,05,02,01,33,8.90
2016,05,02,01,34,8.90
2016,05,02,01,35,8.90
2016,05,02,01,36,9.00
2016,05,02,01,37,9.00
2016,05,02,01,38,9.00
2016,05,02,01,39,9.00
2016,05,02,01,40,9.00
2016,05,02,01,41,9.00
2016,05,02,01,42,9.00
2016,05,02,01,43,9.00
2016,05,02,01,44,9.00
2016,05,02,01,45,9.00
2016,05,02,01,46,9.00
2016,05,02,01,47,9.00
2016,05,02,01,48,9.10
2016,05,02,01,49,9.10
2016,05,02,01,50,9.10
2016,05,02,01,51,9.10
2016,05,02,01,52,9.10
2016,05,02,01,53,9.10
2016,05,02,01,54,9.10
2016,05,02,01,55,9.10
2016,05,02,01,56,9.10
2016,05,02,01,57,9.10
2016,05,02,01,58,9.10
2016,05,02,01,59,9.10
2016,05,02,02,00,9.00
2016,05,02,02,01,9.00
2016,05,02,02,02,8.90
2016,05,02,02,03,8.90
2016,05,02,02,04,8.90
2016,05,02,02,05,8.80
2016,05,02,02,06,8.80
2016,05,02,02,07,8.80
2016,05,02,02,08,8.70
2016,05,02,02,09,8.70
2016,05,02,02,10,8.70
2016,05,02,02,11,8.70
2016,05,02,02,12,8.70
2016,05,02,02,13,8.60
2016,05,02,02,14,8.60
2016,05,02,02,15,8.60
2016,05,02,02,16,8.60
2016,05,02,02,17,8.60
2016,05,02,02,18,8.60
2016,05,02,02,19,8.60
2016,05,02,02,20,8.60
2016,05,02,02,21,8.60
2016,05,02,02,22,8.70
2016,05,02,02,23,8.70
2016,05,02,02,24,8.70
2016,05,02,02,25,8.70
2016,05,02,02,26,8.70
2016,05,02,02,27,8.70
2016,05,02,02,28,8.70
2016,05,02,02,29,8.60
2016,05,02,02,30,8.60
2016,05,02,02,31,8.60
2016,05,02,02,32,8.60
2016,05,02,02,33,8.60
2016,05,02,02,34,8.60
2016,05,02,02,35,8.60
2016,05,02,02,36,8.60
2016,05,02,02,37,8.60
2016,05,02,02,38,8.70
2016,05,02,02,39,8.80
2016,05,02,02,40,8.80
2016,05,02,02,41,8.80
2016,05,02,02,42,8.90
2016,05,02,02,43,8.90
2016,05,02,02,44,8.90
2016,05,02,02,45,8.80
2016,05,02,02,46,8.80
2016,05,02,02,47,8.80
2016,05,02,02,48,8.70
2016,05,02,02,49,8.70
2016,05,02,02,50,8.60
2016,05,02,02,51,8.50
2016,05,02,02,52,8.50
2016,05,02,02,53,8.40
2016,05,02,02,54,8.40
2016,05,02,02,55,8.30
2016,05,02,02,56,8.30
2016,05,02,02,57,8.30
2016,05,02,02,58,8.30
2016,05,02,02,59,8.20
2016,05,02,03,00,8.20
2016,05,02,03,01,8.20
2016,05,02,03,02,8.20
2016,05,02,03,04,8.10
2016,05,02,03,05,8.10
2016,05,02,03,06,8.10
2016,05,02,03,07,8.10
2016,05,02,03,08,8.10
2016,05,02,03,09,8.10
2016,05,02,03,10,8.10
2016,05,02,03,11,8.10
2016,05,02,03,12,8.10
2016,05,02,03,13,8.10
2016,05,02,03,14,8.00
2016,05,02,03,15,8.00
2016,05,02,03,16,8.00
2016,05,02,03,17,7.90
2016,05,02,03,18,7.90
2016,05,02,03,19,7.90
2016,05,02,03,20,7.90
2016,05,02,03,21,7.90
2016,05,02,03,22,7.90
2016,05,02,03,23,7.90
2016,05,02,03,24,7.90
2016,05,02,03,25,7.90
2016,05,02,03,26,7.90
2016,05,02,03,27,7.90
2016,05,02,03,28,7.90
2016,05,02,03,29,7.90
2016,05,02,03,30,7.90
2016,05,02,03,31,7.90
2016,05,02,03,32,7.90
2016,05,02,03,33,7.90
2016,05,02,03,34,7.90
2016,05,02,03,35,7.80
2016,05,02,03,36,7.80
2016,05,02,03,37,7.80
2016,05,02,03,38,7.80
2016,05,02,03,39,7.80
2016,05,02,03,40,7.70
2016,05,02,03,41,7.70
2016,05,02,03,42,7.70
2016,05,02,03,43,7.70
2016,05,02,03,44,7.70
2016,05,02,03,45,7.70
2016,05,02,03,46,7.70
2016,05,02,03,47,7.70
2016,05,02,03,48,7.70
2016,05,02,03,49,7.70
2016,05,02,03,50,7.70
2016,05,02,03,51,7.70
2016,05,02,03,52,7.70
2016,05,02,03,53,7.70
2016,05,02,03,54,7.70
2016,05,02,03,55,7.70
2016,05,02,03,56,7.70
2016,05,02,03,57,7.70
2016,05,02,03,58,7.70
2016,05,02,03,59,7.70
2016,05,02,04,00,7.60
2016,05,02,04,01,7.60
2016,05,02,04,02,7.60
2016,05,02,04,03,7.50
2016,05,02,04,04,7.50
2016,05,02,04,05,7.50
2016,05,02,04,06,7.40
2016,05,02,04,07,7.40
2016,05,02,04,08,7.40
2016,05,02,04,09,7.40
2016,05,02,04,10,7.30
2016,05,02,04,11,7.30
2016,05,02,04,12,7.30
2016,05,02,04,13,7.30
2016,05,02,04,14,7.30
2016,05,02,04,15,7.30
2016,05,02,04,16,7.30
2016,05,02,04,17,7.30
2016,05,02,04,18,7.40
2016,05,02,04,19,7.40
2016,05,02,04,20,7.40
2016,05,02,04,21,7.40
2016,05,02,04,22,7.40
2016,05,02,04,23,7.30
2016,05,02,04,24,7.30
2016,05,02,04,25,7.30
2016,05,02,04,26,7.30
2016,05,02,04,27,7.30
2016,05,02,04,28,7.30
2016,05,02,04,29,7.30
2016,05,02,04,30,7.30
2016,05,02,04,31,7.20
2016,05,02,04,32,7.20
2016,05,02,04,33,7.20
2016,05,02,04,34,7.20
2016,05,02,04,35,7.30
2016,05,02,04,36,7.30
2016,05,02,04,37,7.30
2016,05,02,04,38,7.30
2016,05,02,04,39,7.30
2016,05,02,04,40,7.30
2016,05,02,04,41,7.30
2016,05,02,04,42,7.30
2016,05,02,04,43,7.30
2016,05,02,04,44,7.30
2016,05,02,04,45,7.30
2016,05,02,04,46,7.30
2016,05,02,04,47,7.30
2016,05,02,04,48,7.30
2016,05,02,04,49,7.20
2016,05,02,04,50,7.20
2016,05,02,04,51,7.20
2016,05,02,04,52,7.20
2016,05,02,04,53,7.20
2016,05,02,04,54,7.20
2016,05,02,04,55,7.20
2016,05,02,04,56,7.10
2016,05,02,04,57,7.10
2016,05,02,04,58,7.10
2016,05,02,04,59,7.10
2016,05,02,05,00,7.10
2016,05,02,05,01,7.10
2016,05,02,05,02,7.10
2016,05,02,05,03,7.10
2016,05,02,05,04,7.00
2016,05,02,05,05,7.00
2016,05,02,05,06,7.00
2016,05,02,05,07,7.00
2016,05,02,05,08,7.00
2016,05,02,05,09,7.00
2016,05,02,05,10,7.00
2016,05,02,05,11,7.00
2016,05,02,05,12,6.90
2016,05,02,05,13,6.90
2016,05,02,05,14,6.90
2016,05,02,05,15,6.90
2016,05,02,05,16,6.90
2016,05,02,05,17,6.90
2016,05,02,05,18,6.80
2016,05,02,05,19,6.80
2016,05,02,05,20,6.80
2016,05,02,05,21,6.80
2016,05,02,05,22,6.80
2016,05,02,05,23,6.90
2016,05,02,05,24,6.90
2016,05,02,05,25,6.90
2016,05,02,05,26,6.90
2016,05,02,05,27,6.90
2016,05,02,05,28,6.90
2016,05,02,05,29,6.90
2016,05,02,05,30,6.90
2016,05,02,05,31,6.90
2016,05,02,05,32,6.90
2016,05,02,05,33,6.80
2016,05,02,05,34,6.80
2016,05,02,05,35,6.80
2016,05,02,05,36,6.80
2016,05,02,05,37,6.80
2016,05,02,05,38,6.80
2016,05,02,05,39,6.70
2016,05,02,05,40,6.70
2016,05,02,05,41,6.70
2016,05,02,05,42,6.70
2016,05,02,05,43,6.70
2016,05,02,05,44,6.60
2016,05,02,05,45,6.60
2016,05,02,05,46,6.60
2016,05,02,05,47,6.60
2016,05,02,05,48,6.60
2016,05,02,05,49,6.60
2016,05,02,05,50,6.60
2016,05,02,05,51,6.60
2016,05,02,05,52,6.60
2016,05,02,05,53,6.60
2016,05,02,05,54,6.60
2016,05,02,05,55,6.60
2016,05,02,05,56,6.60
2016,05,02,05,57,6.60
2016,05,02,05,58,6.60
2016,05,02,05,59,6.60
2016,05,02,06,00,6.60
2016,05,02,06,01,6.60
2016,05,02,06,02,6.60
2016,05,02,06,03,6.60
2016,05,02,06,04,6.60
2016,05,02,06,05,6.60
2016,05,02,06,06,6.60
2016,05,02,06,07,6.60
2016,05,02,06,08,6.60
2016,05,02,06,09,6.60
2016,05,02,06,10,6.60
2016,05,02,06,11,6.70
2016,05,02,06,12,6.70
2016,05,02,06,13,6.70
2016,05,02,06,14,6.70
2016,05,02,06,15,6.70
2016,05,02,06,16,6.70
2016,05,02,06,17,6.70
2016,05,02,06,18,6.70
2016,05,02,06,19,6.70
2016,05,02,06,20,6.70
2016,05,02,06,21,6.80
2016,05,02,06,22,6.80
2016,05,02,06,23,6.80
2016,05,02,06,24,6.80
2016,05,02,06,25,6.80
2016,05,02,06,26,6.80
2016,05,02,06,27,6.90
2016,05,02,06,28,6.90
2016,05,02,06,29,6.90
2016,05,02,06,30,6.90
2016,05,02,06,31,7.00
2016,05,02,06,32,7.00
2016,05,02,06,33,7.10
2016,05,02,06,34,7.10
2016,05,02,06,35,7.20
2016,05,02,06,36,7.20
2016,05,02,06,37,7.30
2016,05,02,06,38,7.30
2016,05,02,06,39,7.30
2016,05,02,06,40,7.30
2016,05,02,06,41,7.40
2016,05,02,06,42,7.40
2016,05,02,06,43,7.40
2016,05,02,06,44,7.40
2016,05,02,06,45,7.50
2016,05,02,06,46,7.50
2016,05,02,06,47,7.50
2016,05,02,06,48,7.60
2016,05,02,06,49,7.60
2016,05,02,06,50,7.60
2016,05,02,06,51,7.60
2016,05,02,06,52,7.70
2016,05,02,06,53,7.70
2016,05,02,06,54,7.80
2016,05,02,06,55,7.80
2016,05,02,06,56,7.80
2016,05,02,06,57,7.90
2016,05,02,06,58,7.90
2016,05,02,06,59,8.00
2016,05,02,07,00,8.00
2016,05,02,07,01,8.10
2016,05,02,07,02,8.10
2016,05,02,07,03,8.10
2016,05,02,07,04,8.20
2016,05,02,07,05,8.20
2016,05,02,07,06,8.30
2016,05,02,07,07,8.30
2016,05,02,07,08,8.30
2016,05,02,07,09,8.40
2016,05,02,07,10,8.50
2016,05,02,07,11,8.50
2016,05,02,07,12,8.60
2016,05,02,07,13,8.60
2016,05,02,07,14,8.70
2016,05,02,07,15,8.80
2016,05,02,07,16,8.80
2016,05,02,07,17,8.90
2016,05,02,07,18,8.90
2016,05,02,07,19,9.00
2016,05,02,07,20,9.00
2016,05,02,07,21,9.10
2016,05,02,07,22,9.20
2016,05,02,07,23,9.20
2016,05,02,07,24,9.30
2016,05,02,07,25,9.40
2016,05,02,07,26,9.40
2016,05,02,07,27,9.50
2016,05,02,07,28,9.60
2016,05,02,07,29,9.70
2016,05,02,07,30,9.80
2016,05,02,07,31,9.80
2016,05,02,07,32,9.90
2016,05,02,07,33,10.00
2016,05,02,07,34,10.10
2016,05,02,07,35,10.10
2016,05,02,07,36,10.20
2016,05,02,07,37,10.30
2016,05,02,07,38,10.30
2016,05,02,07,39,10.30
2016,05,02,07,40,10.40
2016,05,02,07,41,10.40
2016,05,02,07,42,10.50
2016,05,02,07,43,10.60
2016,05,02,07,44,10.60
2016,05,02,07,45,10.70
2016,05,02,07,46,10.80
2016,05,02,07,47,10.80
2016,05,02,07,48,10.90
2016,05,02,07,49,11.00
2016,05,02,07,50,11.00
2016,05,02,07,51,11.10
2016,05,02,07,52,11.20
2016,05,02,07,53,11.20
2016,05,02,07,54,11.30
2016,05,02,07,55,11.30
2016,05,02,07,56,11.30
2016,05,02,07,57,11.40
2016,05,02,07,58,11.40
2016,05,02,07,59,11.40
2016,05,02,08,00,11.40
2016,05,02,08,01,11.40
2016,05,02,08,02,11.40
2016,05,02,08,03,11.40
2016,05,02,08,04,11.40
2016,05,02,08,05,11.40
2016,05,02,08,06,11.40
2016,05,02,08,07,11.40
2016,05,02,08,08,11.40
2016,05,02,08,09,11.40
2016,05,02,08,10,11.40
2016,05,02,08,11,11.30
2016,05,02,08,12,11.30
2016,05,02,08,13,11.30
2016,05,02,08,14,11.30
2016,05,02,08,15,11.30
2016,05,02,08,16,11.30
2016,05,02,08,17,11.40
2016,05,02,08,18,11.40
2016,05,02,08,19,11.40
2016,05,02,08,20,11.40
2016,05,02,08,21,11.50
2016,05,02,08,22,11.50
2016,05,02,08,23,11.60
2016,05,02,08,24,11.60
2016,05,02,08,25,11.70
2016,05,02,08,26,11.70
2016,05,02,08,27,11.80
2016,05,02,08,28,11.80
2016,05,02,08,29,11.80
2016,05,02,08,30,11.90
2016,05,02,08,31,11.90
2016,05,02,08,32,11.90
2016,05,02,08,33,12.00
2016,05,02,08,34,12.00
2016,05,02,08,35,12.10
2016,05,02,08,36,12.10
2016,05,02,08,37,12.20
2016,05,02,08,38,12.20
2016,05,02,08,39,12.20
2016,05,02,08,40,12.30
2016,05,02,08,41,12.30
2016,05,02,08,42,12.30
2016,05,02,08,43,12.30
2016,05,02,08,44,12.30
2016,05,02,08,45,12.40
2016,05,02,08,46,12.40
2016,05,02,08,47,12.50
2016,05,02,08,48,12.60
2016,05,02,08,49,12.60
2016,05,02,08,50,12.70
2016,05,02,08,51,12.70
2016,05,02,08,52,12.70
2016,05,02,08,53,12.80
2016,05,02,08,54,12.80
2016,05,02,08,55,12.90
2016,05,02,08,56,12.90
2016,05,02,08,57,13.00
2016,05,02,08,58,13.00
2016,05,02,08,59,13.10
2016,05,02,09,00,13.20
2016,05,02,09,01,13.20
2016,05,02,09,02,13.30
2016,05,02,09,03,13.30
2016,05,02,09,04,13.40
2016,05,02,09,05,13.50
2016,05,02,09,06,13.50
2016,05,02,09,07,13.60
2016,05,02,09,08,13.60
2016,05,02,09,09,13.70
2016,05,02,09,10,13.70
2016,05,02,09,11,13.70
2016,05,02,09,12,13.70
2016,05,02,09,13,13.70
2016,05,02,09,14,13.80
2016,05,02,09,15,13.80
2016,05,02,09,16,13.80
2016,05,02,09,17,13.90
2016,05,02,09,18,13.90
2016,05,02,09,19,14.00
2016,05,02,09,20,14.00
2016,05,02,09,21,14.10
2016,05,02,09,22,14.20
2016,05,02,09,23,14.20
2016,05,02,09,24,14.30
2016,05,02,09,25,14.40
2016,05,02,09,26,14.40
2016,05,02,09,27,14.50
2016,05,02,09,28,14.60
2016,05,02,09,29,14.70
2016,05,02,09,30,14.80
2016,05,02,09,31,14.90
2016,05,02,09,32,15.00
2016,05,02,09,33,15.10
2016,05,02,09,34,15.10
2016,05,02,09,35,15.20
2016,05,02,09,36,15.30
2016,05,02,09,37,15.40
2016,05,02,09,38,15.50
2016,05,02,09,39,15.50
2016,05,02,09,40,15.60
2016,05,02,09,41,15.60
2016,05,02,09,42,15.70
2016,05,02,09,43,15.70
2016,05,02,09,44,15.70
2016,05,02,09,45,15.70
2016,05,02,09,46,15.70
2016,05,02,09,47,15.70
2016,05,02,09,48,15.80
2016,05,02,09,49,15.80
2016,05,02,09,50,15.90
2016,05,02,09,51,15.90
2016,05,02,09,52,16.00
2016,05,02,09,53,16.00
2016,05,02,09,54,16.00
2016,05,02,09,55,16.00
2016,05,02,09,56,16.10
2016,05,02,09,57,16.10
2016,05,02,09,58,16.10
2016,05,02,09,59,16.20
2016,05,02,10,00,16.20
2016,05,02,10,01,16.30
2016,05,02,10,02,16.30
2016,05,02,10,03,16.40
2016,05,02,10,04,16.40
2016,05,02,10,05,16.50
2016,05,02,10,06,16.50
2016,05,02,10,07,16.60
2016,05,02,10,08,16.70
2016,05,02,10,09,16.70
2016,05,02,10,10,16.70
2016,05,02,10,11,16.80
2016,05,02,10,12,16.80
2016,05,02,10,13,16.80
2016,05,02,10,14,16.80
2016,05,02,10,15,16.80
2016,05,02,10,16,16.80
2016,05,02,10,17,16.70
2016,05,02,10,18,16.70
2016,05,02,10,19,16.70
2016,05,02,10,20,16.60
2016,05,02,10,21,16.60
2016,05,02,10,22,16.50
2016,05,02,10,23,16.50
2016,05,02,10,24,16.40
2016,05,02,10,25,16.40
2016,05,02,10,26,16.30
2016,05,02,10,27,16.30
2016,05,02,10,28,16.20
2016,05,02,10,29,16.20
2016,05,02,10,30,16.20
2016,05,02,10,31,16.20
2016,05,02,10,32,16.10
2016,05,02,10,33,16.10
2016,05,02,10,34,16.10
2016,05,02,10,35,16.10
2016,05,02,10,36,16.10
2016,05,02,10,37,16.10
2016,05,02,10,38,16.10
2016,05,02,10,39,16.10
2016,05,02,10,40,16.20
2016,05,02,10,41,16.20
2016,05,02,10,42,16.30
2016,05,02,10,43,16.30
2016,05,02,10,44,16.40
2016,05,02,10,45,16.50
2016,05,02,10,46,16.50
2016,05,02,10,47,16.60
2016,05,02,10,48,16.60
2016,05,02,10,49,16.60
2016,05,02,10,50,16.60
2016,05,02,10,51,16.70
2016,05,02,10,52,16.70
2016,05,02,10,53,16.70
2016,05,02,10,54,16.80
2016,05,02,10,55,16.80
2016,05,02,10,56,16.90
2016,05,02,10,57,16.90
2016,05,02,10,58,16.90
2016,05,02,10,59,17.00
2016,05,02,11,00,17.00
2016,05,02,11,01,16.90
2016,05,02,11,02,16.90
2016,05,02,11,03,16.90
2016,05,02,11,04,16.90
2016,05,02,11,05,16.90
2016,05,02,11,06,16.90
2016,05,02,11,07,17.00
2016,05,02,11,08,17.10
2016,05,02,11,09,17.10
2016,05,02,11,10,17.10
2016,05,02,11,11,17.20
2016,05,02,11,12,17.10
2016,05,02,11,13,17.00
2016,05,02,11,14,17.00
2016,05,02,11,15,17.00
2016,05,02,11,16,17.00
2016,05,02,11,17,17.00
2016,05,02,11,18,16.90
2016,05,02,11,19,16.90
2016,05,02,11,20,16.80
2016,05,02,11,21,16.80
2016,05,02,11,22,16.70
2016,05,02,11,23,16.60
2016,05,02,11,24,16.60
2016,05,02,11,25,16.60
2016,05,02,11,26,16.60
2016,05,02,11,27,16.60
2016,05,02,11,28,16.60
2016,05,02,11,29,16.60
2016,05,02,11,30,16.60
2016,05,02,11,31,16.60
2016,05,02,11,32,16.70
2016,05,02,11,33,16.70
2016,05,02,11,34,16.80
2016,05,02,11,35,16.90
2016,05,02,11,36,17.00
2016,05,02,11,37,17.00
2016,05,02,11,38,17.10
2016,05,02,11,39,17.20
2016,05,02,11,40,17.20
2016,05,02,11,41,17.30
2016,05,02,11,42,17.30
2016,05,02,11,43,17.20
2016,05,02,11,44,17.10
2016,05,02,11,45,17.10
2016,05,02,11,46,17.00
2016,05,02,11,47,16.90
2016,05,02,11,48,16.90
2016,05,02,11,49,16.90
2016,05,02,11,50,17.00
2016,05,02,11,51,17.00
2016,05,02,11,52,17.10
2016,05,02,11,53,17.20
2016,05,02,11,54,17.20
2016,05,02,11,55,17.30
2016,05,02,11,56,17.30
2016,05,02,11,57,17.40
2016,05,02,11,58,17.50
2016,05,02,11,59,17.60
2016,05,02,12,00,17.70
2016,05,02,12,01,17.80
2016,05,02,12,02,17.90
2016,05,02,12,03,18.00
2016,05,02,12,04,18.00
2016,05,02,12,05,18.10
2016,05,02,12,06,18.10
2016,05,02,12,07,18.20
2016,05,02,12,08,18.20
2016,05,02,12,09,18.30
2016,05,02,12,10,18.30
2016,05,02,12,11,18.30
2016,05,02,12,12,18.40
2016,05,02,12,13,18.40
2016,05,02,12,14,18.50
2016,05,02,12,15,18.50
2016,05,02,12,16,18.60
2016,05,02,12,17,18.60
2016,05,02,12,18,18.70
2016,05,02,12,19,18.70
2016,05,02,12,20,18.70
2016,05,02,12,21,18.80
2016,05,02,12,22,18.80
2016,05,02,12,23,18.80
2016,05,02,12,24,18.80
2016,05,02,12,25,18.90
2016,05,02,12,26,18.90
2016,05,02,12,27,18.90
2016,05,02,12,28,18.90
2016,05,02,12,29,18.90
2016,05,02,12,30,19.00
2016,05,02,12,31,19.00
2016,05,02,12,32,19.00
2016,05,02,12,33,19.00
2016,05,02,12,34,19.00
2016,05,02,12,35,18.90
2016,05,02,12,36,18.90
2016,05,02,12,37,18.90
2016,05,02,12,38,18.80
2016,05,02,12,39,18.80
2016,05,02,12,40,18.80
2016,05,02,12,41,18.80
2016,05,02,12,42,18.80
2016,05,02,12,43,18.70
2016,05,02,12,44,18.70
2016,05,02,12,45,18.70
2016,05,02,12,46,18.70
2016,05,02,12,47,18.80
2016,05,02,12,48,18.80
2016,05,02,12,49,18.80
2016,05,02,12,50,18.80
2016,05,02,12,51,18.80
2016,05,02,12,52,18.80
2016,05,02,12,53,18.80
2016,05,02,12,54,18.80
2016,05,02,12,55,18.80
2016,05,02,12,56,18.90
2016,05,02,12,57,18.90
2016,05,02,12,58,18.90
2016,05,02,12,59,18.80
2016,05,02,13,00,18.80
2016,05,02,13,01,18.80
2016,05,02,13,02,18.80
2016,05,02,13,03,18.90
2016,05,02,13,04,18.90
2016,05,02,13,05,19.00
2016,05,02,13,06,19.10
2016,05,02,13,07,19.10
2016,05,02,13,08,19.20
2016,05,02,13,09,19.30
2016,05,02,13,10,19.30
2016,05,02,13,11,19.40
2016,05,02,13,12,19.40
2016,05,02,13,13,19.50
2016,05,02,13,14,19.50
2016,05,02,13,15,19.60
2016,05,02,13,16,19.60
2016,05,02,13,17,19.60
2016,05,02,13,18,19.60
2016,05,02,13,19,19.60
2016,05,02,13,20,19.60
2016,05,02,13,21,19.60
2016,05,02,13,22,19.60
2016,05,02,13,23,19.60
2016,05,02,13,24,19.70
2016,05,02,13,25,19.70
2016,05,02,13,26,19.70
2016,05,02,13,27,19.80
2016,05,02,13,28,19.80
2016,05,02,13,29,19.80
2016,05,02,13,30,19.90
2016,05,02,13,31,19.90
2016,05,02,13,32,19.90
2016,05,02,13,33,19.90
2016,05,02,13,34,19.90
2016,05,02,13,35,20.00
2016,05,02,13,36,20.00
2016,05,02,13,37,20.10
2016,05,02,13,38,20.10
2016,05,02,13,39,20.10
2016,05,02,13,40,20.10
2016,05,02,13,41,20.10
2016,05,02,13,42,20.10
2016,05,02,13,43,20.10
2016,05,02,13,44,20.10
2016,05,02,13,45,20.20
2016,05,02,13,46,20.20
2016,05,02,13,47,20.20
2016,05,02,13,48,20.30
2016,05,02,13,49,20.30
2016,05,02,13,50,20.40
2016,05,02,13,51,20.40
2016,05,02,13,52,20.50
2016,05,02,13,53,20.50
2016,05,02,13,54,20.50
2016,05,02,13,55,20.50
2016,05,02,13,56,20.60
2016,05,02,13,57,20.60
2016,05,02,13,58,20.60
2016,05,02,13,59,20.60
2016,05,02,14,00,20.60
2016,05,02,14,01,20.70
2016,05,02,14,02,20.70
2016,05,02,14,03,20.80
2016,05,02,14,04,20.80
2016,05,02,14,05,20.80
2016,05,02,14,06,20.70
2016,05,02,14,07,20.70
2016,05,02,14,08,20.60
2016,05,02,14,09,20.50
2016,05,02,14,10,20.40
2016,05,02,14,11,20.30
2016,05,02,14,12,20.20
2016,05,02,14,13,20.10
2016,05,02,14,14,20.10
2016,05,02,14,15,20.00
2016,05,02,14,16,20.00
2016,05,02,14,17,19.90
2016,05,02,14,18,19.90
2016,05,02,14,19,19.90
2016,05,02,14,20,19.90
2016,05,02,14,21,19.90
2016,05,02,14,22,19.80
2016,05,02,14,23,19.80
2016,05,02,14,24,19.80
2016,05,02,14,25,19.80
2016,05,02,14,26,19.80
2016,05,02,14,27,19.80
2016,05,02,14,28,19.80
2016,05,02,14,29,19.80
2016,05,02,14,30,19.80
2016,05,02,14,31,19.80
2016,05,02,14,32,19.90
2016,05,02,14,33,19.90
2016,05,02,14,34,19.90
2016,05,02,14,35,20.00
2016,05,02,14,36,20.00
2016,05,02,14,37,19.90
2016,05,02,14,38,19.80
2016,05,02,14,39,19.70
2016,05,02,14,40,19.60
2016,05,02,14,41,19.50
2016,05,02,14,42,19.50
2016,05,02,14,43,19.40
2016,05,02,14,44,19.40
2016,05,02,14,45,19.40
2016,05,02,14,46,19.40
2016,05,02,14,47,19.40
2016,05,02,14,48,19.40
2016,05,02,14,49,19.40
2016,05,02,14,50,19.40
2016,05,02,14,51,19.30
2016,05,02,14,52,19.30
2016,05,02,14,53,19.30
2016,05,02,14,54,19.30
2016,05,02,14,55,19.30
2016,05,02,14,56,19.30
2016,05,02,14,57,19.30
2016,05,02,14,58,19.30
2016,05,02,14,59,19.30
2016,05,02,15,00,19.40
2016,05,02,15,01,19.40
2016,05,02,15,02,19.40
2016,05,02,15,03,19.50
2016,05,02,15,04,19.60
2016,05,02,15,05,19.60
2016,05,02,15,06,19.60
2016,05,02,15,07,19.60
2016,05,02,15,08,19.70
2016,05,02,15,09,19.70
2016,05,02,15,10,19.70
2016,05,02,15,11,19.70
2016,05,02,15,12,19.70
2016,05,02,15,13,19.70
2016,05,02,15,14,19.70
2016,05,02,15,15,19.70
2016,05,02,15,16,19.80
2016,05,02,15,17,19.90
2016,05,02,15,18,20.00
2016,05,02,15,19,20.10
2016,05,02,15,20,20.20
2016,05,02,15,21,20.20
2016,05,02,15,22,20.20
2016,05,02,15,23,20.30
2016,05,02,15,24,20.30
2016,05,02,15,25,20.30
2016,05,02,15,26,20.30
2016,05,02,15,27,20.40
2016,05,02,15,28,20.40
2016,05,02,15,29,20.50
2016,05,02,15,30,20.60
2016,05,02,15,31,20.70
2016,05,02,15,32,20.70
2016,05,02,15,33,20.70
2016,05,02,15,34,20.70
2016,05,02,15,35,20.70
2016,05,02,15,36,20.70
2016,05,02,15,37,20.80
2016,05,02,15,38,20.80
2016,05,02,15,39,20.90
2016,05,02,15,40,21.00
2016,05,02,15,41,21.10
2016,05,02,15,42,21.20
2016,05,02,15,43,21.20
2016,05,02,15,44,21.20
2016,05,02,15,45,21.20
2016,05,02,15,46,21.20
2016,05,02,15,47,21.20
2016,05,02,15,48,21.20
2016,05,02,15,49,21.30
2016,05,02,15,50,21.30
2016,05,02,15,51,21.30
2016,05,02,15,52,21.40
2016,05,02,15,53,21.40
2016,05,02,15,54,21.40
2016,05,02,15,55,21.40
2016,05,02,15,56,21.30
2016,05,02,15,57,21.30
2016,05,02,15,58,21.30
2016,05,02,15,59,21.30
2016,05,02,16,00,21.20
2016,05,02,16,01,21.20
2016,05,02,16,02,21.10
2016,05,02,16,03,21.10
2016,05,02,16,04,21.10
2016,05,02,16,05,21.10
2016,05,02,16,06,21.10
2016,05,02,16,07,21.00
2016,05,02,16,08,20.90
2016,05,02,16,09,20.90
2016,05,02,16,10,20.80
2016,05,02,16,11,20.80
2016,05,02,16,12,20.70
2016,05,02,16,13,20.70
2016,05,02,16,14,20.60
2016,05,02,16,15,20.60
2016,05,02,16,16,20.60
2016,05,02,16,17,20.60
2016,05,02,16,18,20.60
2016,05,02,16,19,20.60
2016,05,02,16,20,20.60
2016,05,02,16,21,20.60
2016,05,02,16,22,20.60
2016,05,02,16,23,20.60
2016,05,02,16,24,20.60
2016,05,02,16,25,20.60
2016,05,02,16,26,20.60
2016,05,02,16,27,20.60
2016,05,02,16,28,20.60
2016,05,02,16,29,20.70
2016,05,02,16,30,20.70
2016,05,02,16,31,20.70
2016,05,02,16,32,20.60
2016,05,02,16,33,20.60
2016,05,02,16,34,20.60
2016,05,02,16,35,20.60
2016,05,02,16,36,20.60
2016,05,02,16,37,20.60
2016,05,02,16,38,20.60
2016,05,02,16,39,20.60
2016,05,02,16,40,20.60
2016,05,02,16,41,20.60
2016,05,02,16,42,20.60
2016,05,02,16,43,20.60
2016,05,02,16,44,20.60
2016,05,02,16,45,20.70
2016,05,02,16,46,20.70
2016,05,02,16,47,20.70
2016,05,02,16,48,20.70
2016,05,02,16,49,20.80
2016,05,02,16,50,20.70
2016,05,02,16,51,20.70
2016,05,02,16,52,20.70
2016,05,02,16,53,20.70
2016,05,02,16,54,20.70
2016,05,02,16,55,20.70
2016,05,02,16,56,20.70
2016,05,02,16,57,20.80
2016,05,02,16,58,20.80
2016,05,02,16,59,20.70
2016,05,02,17,00,20.70
2016,05,02,17,01,20.70
2016,05,02,17,02,20.70
2016,05,02,17,03,20.70
2016,05,02,17,04,20.70
2016,05,02,17,05,20.70
2016,05,02,17,06,20.70
2016,05,02,17,07,20.60
2016,05,02,17,08,20.50
2016,05,02,17,09,20.50
2016,05,02,17,10,20.40
2016,05,02,17,11,20.40
2016,05,02,17,12,20.30
2016,05,02,17,13,20.30
2016,05,02,17,14,20.30
2016,05,02,17,15,20.30
2016,05,02,17,16,20.30
2016,05,02,17,17,20.30
2016,05,02,17,18,20.20
2016,05,02,17,19,20.20
2016,05,02,17,20,20.20
2016,05,02,17,21,20.20
2016,05,02,17,22,20.20
2016,05,02,17,23,20.20
2016,05,02,17,24,20.20
2016,05,02,17,25,20.20
2016,05,02,17,26,20.20
2016,05,02,17,27,20.20
2016,05,02,17,28,20.20
2016,05,02,17,29,20.20
2016,05,02,17,30,20.30
2016,05,02,17,31,20.30
2016,05,02,17,32,20.30
2016,05,02,17,33,20.40
2016,05,02,17,34,20.40
2016,05,02,17,35,20.50
2016,05,02,17,36,20.50
2016,05,02,17,37,20.50
2016,05,02,17,38,20.50
2016,05,02,17,39,20.50